Regional Weather Roundup
Issued by NWS

Home | Current Version | Previous Version | Graphics & Text | Print | Product List | Glossary On
Versions: 1 2 3 4 5 6 7 8 9 10 11 12 13 14 15 16 17 18 19 20 21 22 23 24 25 26 27 28 29 30 31 32 33 34 35 36 37 38 39 40 41 42 43 44 45 46 47 48 49 50
000
ASUS43 KMKX 260700
RWRWI

WISCONSIN REGIONAL WEATHER ROUNDUP
NATIONAL WEATHER SERVICE MILWAUKEE/SULLIVAN WI
200 AM CDT SUN OCT 26 2014

NOTE: "FAIR" INDICATES FEW OR NO CLOUDS BELOW 12,000 FEET WITH NO
SIGNIFICANT WEATHER AND/OR OBSTRUCTIONS TO VISIBILITY.

WIZ001-002-006>008-014>016-023>028-260800-
NORTHWEST WISCONSIN

CITY           SKY/WX    TMP DP  RH WIND       PRES   REMARKS
SUPERIOR ARPT  CLEAR     35  27  74 S7        29.99S WCI  29
ASHLAND        CLEAR     39  28  64 W5        29.98S
HAYWARD        CLEAR     32  26  78 CALM      30.00S
SIREN          CLEAR     35  28  76 W3        30.02S
CUMBERLAND     CLEAR     34  28  80 W7        30.01S WCI  28
RICE LAKE      CLEAR     36  30  79 CALM      30.03S
CHETEK         CLEAR     34  28  77 CALM      30.02S
LADYSMITH      CLEAR     38  29  69 SW3       30.01S
EAU CLAIRE     NOT AVBL
MENOMONIE      CLEAR     44  29  56 W5        30.03F
NEW RICHMOND   CLEAR     38  32  81 SW3       30.04S
OSCEOLA        CLEAR     33  29  85 CALM      30.06S
$$

WIZ003>005-009-010-017-018-260800-
NORTH CENTRAL WISCONSIN

CITY           SKY/WX    TMP DP  RH WIND       PRES   REMARKS
MANITOWISH WTR CLEAR     37  27  67 W3        29.94S
ARBOR VITAE    CLEAR     43  28  56 NW3       29.95R
WOODRUFF       CLEAR     43  28  56 NW3       29.95R
RHINELANDER    CLEAR     37  25  61 W8        29.95S WCI  31
EAGLE RIVER    CLEAR     40  26  56 W6        29.92S
LAND O LAKES   CLEAR     40  29  65 W3        29.93S
PHILLIPS       CLEAR     39  26  59 CALM      29.97S
TOMAHAWK       CLEAR     37  25  61 CALM      29.96F
MEDFORD        CLEAR     36  26  66 W5        29.98S WCI  32
MERRILL        CLEAR     44  26  48 NW5       29.97S
$$

WIZ029-030-035-036-043>047-260800-
CENTRAL WISCONSIN

CITY           SKY/WX    TMP DP  RH WIND       PRES   REMARKS
WAUSAU         CLEAR     41  27  57 NW3       29.96S
MOSINEE        CLEAR     41  28  60 W7        29.99S
MARSHFIELD     CLEAR     39  27  62 W6        29.99S WCI  35
STEVENS POINT  CLEAR     40  26  57 W5        29.99R
WAUPACA        CLEAR     46  27  48 W8        29.98R
WAUTOMA        NOT AVBL
WISC RAPIDS    CLEAR     37  28  70 W3        30.01S
CAMP DOUGLAS   NOT AVBL
$$

WIZ011>013-019>022-031-037>040-048>050-260800-
NORTHEAST WISCONSIN

CITY           SKY/WX    TMP DP  RH WIND       PRES   REMARKS
ANTIGO         CLEAR     40  27  60 NW8       29.95S WCI  34
SHAWANO        CLEAR     46  26  45 W8        29.94S
OCONTO         CLEAR     44  27  52 W7        29.92R
STURGEON BAY   CLEAR     48  28  46 W8        29.92R
GREEN BAY      CLEAR     42  29  59 W7        29.94R
MANITOWOC      NOT AVBL
APPLETON       CLEAR     41  28  60 W12       29.96S
CLINTONVILLE   CLEAR     45  27  49 NW8       29.95S
OSHKOSH        CLEAR     45  29  53 W10       29.96S
$$

WIZ032>034-041-042-053>061-260800-
SOUTHWEST WISCONSIN

CITY           SKY/WX    TMP DP  RH WIND       PRES   REMARKS
LA CROSSE      CLEAR     40  34  79 CALM      30.04S
SPARTA         CLEAR     32  28  86 CALM      30.05R
VIROQUA        CLEAR     44  28  54 W3        30.04R
BOSCOBEL       CLEAR     37  32  82 SW3       30.05R
PRAIRIE DU CHI CLEAR     40  33  75 CALM      30.05R
PLATTEVILLE    CLEAR     43  31  63 NW3       30.04S
$$

WIZ056-057-062-063-064-067-068-260800-
SOUTH CENTRAL WISCONSIN

CITY           SKY/WX    TMP DP  RH WIND       PRES   REMARKS
REEDSBURG      CLEAR     41  31  67 NW6       30.02R
BARABOO/DELLS  CLEAR     42  28  56 CALM      30.02R
LONE ROCK      NOT AVBL
MINERAL POINT  CLEAR     43  30  61 W5        30.04R
MADISON        CLEAR     47  28  47 NW6       30.01R
MIDDLETON      CLEAR     40  29  63 W6        30.02R
WATERTOWN      CLEAR     45  30  55 NW5       29.99R
MONROE         CLEAR     46  30  53 W10       30.01R
JANESVILLE     CLEAR     43  30  61 NW5       30.00R
$$

WIZ051-052-058>065-066-070>072-260800-
SOUTHEAST WISCONSIN

CITY           SKY/WX    TMP DP  RH WIND       PRES   REMARKS
MILWAUKEE      CLEAR     50  27  40 NW9       29.97R
WAUKESHA       CLEAR     43  30  61 W9        29.99R
MILWAUKEE/TIMM CLEAR     45  28  53 W7        29.98R
RACINE         CLEAR     48  28  46 W6        29.99R
BURLINGTON     CLEAR     44  30  58 NW10      29.99R
KENOSHA        CLEAR     50  29  44 NW9       29.98R
FOND DU LAC    CLEAR     46  27  47 W13       29.97R
SHEBOYGAN      CLEAR     45  30  55 NW9       29.94S
WEST BEND      CLEAR     45  28  53 NW7       29.97R
JUNEAU         CLEAR     47  28  48 W6        30.00R
$$

LSZ147-162-260800-
LAKE SUPERIOR

STATION/POSITION TIME  TEMP    WIND        PRES    WAVE
                       AIR SEA DIR/SP/G            HT/PER
                 (UTC) (F)     (DEG/KT/KT) (MB)    (FT/S)
W MID LAKE BUOY  0550   48 45  290/ 12/ 14 1012.7R   3/ 5
DEVILS ISLAND    0600   50     280/ 15/ 17 1014.2R
PORT WING        0600   50     240/  9/ 13 1015.2R
SAXON HARBOR     0600   40     210/  5/  8 1014.6S
$$

LMZ867-665-643>646-260800-
LAKE MICHIGAN

STATION/POSITION TIME  TEMP    WIND        PRES    WAVE
                       AIR SEA DIR/SP/G            HT/PER
                 (UTC) (F)     (DEG/KT/KT) (MB)    (FT/S)
CHAMBERS ISLAND  0600   51     290/  8/ 12 1012.2R
N MID LAKE BUOY  0550   52 51  300/ 19/ 23 1010.5R   4/ 5
NORTHPORT PIER   0600   52     300/ 17/ 24 1011.5R
KEWAUNEE LAKESHO 0600   47     290/  5/  7 1012.2R
SHEBOYGAN LAKESH 0600   52 51  290/ 10/ 11 1014.1R
PORT WASHINGTON  0640   50     280/  6/  9 1014.9R
ATWATER BUOY     0600   54     270/ 14/ 16 1015.2S
MILWAUKEE LAKESH 0600   53     300/ 10/ 13   N/A
S MID LAKE BUOY  0550   56 54  300/ 17/ 19 1013.6R   3/ 5
KENOSHA   LAKESH 0600   52     290/ 11/ 15 1014.6R
$$

TC  - TEMPERATURE IN CELSIUS
VSB - VISIBILITY IN STATUTE MILES
WCI - WIND CHILL INDEX
HX  - HEAT INDEX




USA.gov is the U.S. government's official web portal to all federal, state and local government web resources and services.